DELTA 1 DEB, 2707

Orbit data source: Space-Track

DELTA 1 DEB, 2707 is space debris in SSO originally from a launch on Thu, 26 Jan 1967 UTC launched from the Air Force Western Test Range (AFWTR). Debris objects in space refer to the collection of defunct objects orbiting the Earth. Examples of debris include non-operational satellites, rocket bodies, and fragments generated from explosions, collisions, or faulty payload assembly.

Loading next visibility...
Identifier
2707, 1967-006D
Orbit
SSO
Last TLE update
1 day ago
Origin
Manufacturer
Unknown
Mission
Spacecraft
Bus & Motor
Unknown
Mass
Unknown
Launch date (UTC)
1967-01-26 (58 years ago)
Launch vehicle
Unknown
Launch site
Air Force Western Test Range (AFWTR)
Object type
Payload
Rocket body
Debris
Shape & HBR
Unknown
Radar Cross Section
Small (<0.1 m²)

Expand to show TLE details & history

TLE from 1 day ago
0 DELTA 1 DEB
1 02707U 67006D   25127.81829738 -.00000009  00000-0  16672-3 0  9993
2 02707 101.8388  73.6040 0149361 102.8856 326.3098 12.79382091720519
Epoch: 2025-05-07T19:38Z
Definitive object data (Epoch: 2025-05-07T19:38:20.893Z)
Latitude
65.44475°
Longitude
-114.04083°
Altitude
1,259.642 km
Speed
7.276 km/s
True Right ascension
03h 05m 46s
True Declination
65° 19' 23"
Sunlit
Object was in daylight at TLE epoch
Visualization TLE readout
Latitude
50.64095°
Longitude
-100.14293°
Altitude
1,273.677 km
Speed
7.26 km/s
Apparent Right ascension
02h 44m 49s
Apparent Declination
11° 10' 29"
Sunlit
Object is in daylight
Visualization observer readout
Local Sidereal Time
13:28:54
Azimuth
336.785° NNW
Elevation
-35.957°
Doppler factor
1
Orbital elements
Apogee altitude
1,456.769 km
Perigee altitude
1,226.168 km
Semi-major axis
7,719.605 km
Eccentricity
0.0149361
Inclination
101.8388°
RAAN
73.604°
Arg. of periapsis
102.8856°
True anomaly
325.34547°
Mean anomaly
326.3098°
Eccentric anomaly
325.82914°
Mean motion
3.2 °/min
BSTAR
0.00016672
Orbital period
112.5 mins
Loading maneuver chart data...
Loading SW <> Apogee altitude chart data...
Loading historical data...
Loading historical data...
Loading historical data...
Loading historical data...
Loading historical data...
Loading historical data...
Loading historical data...
Other satellites on launch #6 in the year 1967 (1967-01-26 UTC)

DELTA 1 DEB Visibility forecast

Observer location: undefined°, undefined°

Span
Click to sort rows by Start time (UTC) header in descending order
Start Az.
Max El. time (UTC)
Max El. Az.
Max El.
End time (UTC)
End Az.
7 mins2025-05-09 07:37:15.307Z63.592° ENE2025-05-09 07:40:15.307Z89.303° E14.535°2025-05-09 07:44:15.307Z123.122° SE
13 mins2025-05-09 09:26:15.307Z17.68° NNE2025-05-09 09:32:15.307Z198.172° SSW44.813°2025-05-09 09:39:15.307Z199.648° SSW
7 mins2025-05-09 11:18:15.307Z338.018° N2025-05-09 11:21:15.307Z310.267° NW17.536°2025-05-09 11:25:15.307Z273.619° WNW
8 mins2025-05-09 18:24:15.307Z87.766° E2025-05-09 18:28:15.307Z49.507° ENE19.296°2025-05-09 18:32:15.307Z13.946° NNE
13 mins2025-05-09 20:11:15.307Z164.347° S2025-05-09 20:17:15.307Z211.411° SW44.659°2025-05-09 20:24:15.307Z340.726° N
5 mins2025-05-09 22:07:15.307Z253.946° W2025-05-09 22:09:15.307Z270.972° WNW13.312°2025-05-09 22:12:15.307Z295.527° NW
|